Content
SEND FEEDBACK

Daily
Averages
Monthly
Summary
United States of America

MAURICEVILLE, TEXAS


Home > North America > United States > Texas
Elevation: 20 feet     Latitude: 30 14N     Longitude: 093 44W

WEATHER
 
SELECT A DAY
Number of Records: 108,109;   Date Range: 8/25/05 - 7/27/14
 
SHARE

PRINT THIS DATA

[ ← Previous Day ]
WEATHER ALMANAC - MAY 7, 2013
[ Next Day → ]
[ °C ]   °F
Weather ElementAverageHighLow
Temperature69.9 °F81.3 °F (2:15 pm)56.3 °F (1:55 am)
Dewpoint57.8 °F62.6 °F (11:55 pm)52.9 °F (12:35 pm)
Humidity69 %97 % (6:35 am)40 % (12:35 pm)
Barometer30.04 in30.08 in (8:55 am)30.00 in (4:15 pm)
Wind Speed2 mph13.8 mph (5:35 pm)
Wind Gust19.6 mph (6:35 pm)
Weather ElementAverage
Visibility9.6 mi
Wind DirectionNNE (36.2 °)

Weather ElementTotal
Precipitation---
Cooling Degree Days3.8 (Base 65)
Growing Degree Days18.8 (Base 50)
Averaged from 71 records on May 7, 2013
WEATHER CONDITIONS BREAKOUT
WIND DIRECTION BREAKOUT
WEATHER BY HOUR - MAY 7, 2013
[ °C ]   °F
Local TimeTemperatureDewpointHumidityBarometerVisibilityWind DirectionWind SpeedGust SpeedPrecipitationEventsConditions
12:35 AM59.4 °F56.7 °F91 %30.02 in10.0 miCalmClear
12:55 AM58.3 °F55.9 °F92 %30.03 in10.0 miCalmClear
1:15 AM57.2 °F55.6 °F94 %30.02 in10.0 miCalmClear
1:35 AM57.4 °F56.1 °F96 %30.03 in10.0 miCalmClear
1:55 AM56.3 °F54.9 °F95 %30.03 in10.0 miCalmClear
2:15 AM62.6 °F58.1 °F85 %30.02 in10.0 miCalmClear
2:35 AM63.0 °F58.6 °F86 %30.02 in10.0 miCalmClear
2:55 AM63.5 °F59.2 °F86 %30.02 in10.0 miCalmClear
3:15 AM63.7 °F59.4 °F86 %30.02 in10.0 miCalmClear
3:35 AM63.5 °F59.7 °F87 %30.02 in10.0 miCalmRainLight Rain
3:55 AM63.0 °F59.5 °F89 %30.02 in10.0 miCalmClear
4:15 AM62.6 °F59.9 °F91 %30.02 in10.0 miCalmClear
4:35 AM62.2 °F59.4 °F90 %30.03 in10.0 miCalmClear
4:55 AM62.2 °F59.5 °F91 %30.03 in10.0 miCalmClear
5:15 AM61.9 °F59.5 °F92 %30.03 in10.0 miCalmClear
5:35 AM61.2 °F59.2 °F93 %30.04 in10.0 miCalmClear
5:55 AM60.8 °F59.2 °F94 %30.04 in10.0 miCalmClear
6:15 AM59.5 °F58.1 °F95 %30.04 in7.0 miCalmClear
6:35 AM59.0 °F58.1 °F97 %30.05 in2.5 miCalmClear
6:55 AM57.6 °F56.8 °F97 %30.05 in0.2 miCalmFogFog
7:15 AM57.6 °F56.8 °F97 %30.06 in5.0 miCalmClear
7:35 AM59.7 °F59.0 °F97 %30.06 in5.0 miCalmClear
7:55 AM63.9 °F61.5 °F92 %30.06 in10.0 miCalmClear
8:15 AM66.7 °F60.6 °F81 %30.07 in10.0 miCalmClear
8:35 AM67.1 °F60.6 °F80 %30.07 in10.0 miCalmClear
8:55 AM68.7 °F60.4 °F75 %30.08 in10.0 miCalmClear
9:15 AM70.2 °F59.2 °F68 %30.08 in10.0 miCalmClear
9:35 AM71.6 °F59.4 °F65 %30.08 in10.0 miCalmClear
9:55 AM73.4 °F59.0 °F61 %30.08 in10.0 miCalmClear
10:15 AM74.3 °F58.3 °F57 %30.08 in10.0 miCalmClear
10:35 AM75.4 °F56.7 °F52 %30.08 in10.0 miCalmClear
10:55 AM75.7 °F56.1 °F50 %30.08 in10.0 miCalmClear
11:15 AM76.5 °F56.1 °F49 %30.08 in10.0 miCalmClear
11:35 AM77.4 °F56.3 °F48 %30.08 in10.0 miCalmClear
11:55 AM77.2 °F54.5 °F45 %30.08 in10.0 miCalmClear
12:15 PM78.6 °F54.9 °F44 %30.07 in10.0 miCalmClear
12:35 PM79.0 °F52.9 °F40 %30.07 in10.0 miCalmClear
12:55 PM79.0 °F52.9 °F40 %30.06 in10.0 miCalmClear
1:15 PM79.3 °F54.0 °F41 %30.05 in10.0 miSouth (190°)5.8 mphClear
1:35 PM80.8 °F54.9 °F41 %30.05 in10.0 miCalmClear
1:55 PM80.6 °F55.0 °F41 %30.04 in10.0 miCalmClear
2:15 PM81.3 °F54.7 °F40 %30.03 in10.0 miCalmClear
2:35 PM80.8 °F57.2 °F44 %30.03 in10.0 miCalmScattered Clouds
2:55 PM81.3 °F57.6 °F44 %30.02 in10.0 miCalmClear
3:15 PM80.4 °F55.8 °F43 %30.02 in10.0 miCalmScattered Clouds
3:35 PM81.1 °F57.6 °F44 %30.01 in10.0 miSSE (160°)5.8 mphScattered Clouds
3:55 PM80.4 °F57.6 °F45 %30.01 in10.0 miSouth (190°)10.4 mphScattered Clouds
4:15 PM79.9 °F56.3 °F44 %30.00 in10.0 miSouth (180°)9.2 mphClear
4:35 PM80.1 °F56.8 °F45 %30.00 in10.0 miSouth (190°)11.5 mphClear
4:55 PM79.7 °F55.9 °F44 %30.00 in10.0 miSSW (200°)12.7 mphClear
5:15 PM78.8 °F55.4 °F44 %30.00 in10.0 miSouth (180°)12.7 mph16.1 mphClear
5:35 PM78.1 °F55.2 °F45 %30.00 in10.0 miSouth (180°)13.8 mphClear
5:55 PM77.9 °F54.3 °F44 %30.00 in10.0 miSouth (170°)11.5 mph17.3 mphClear
6:15 PM77.0 °F55.2 °F47 %30.00 in10.0 miSouth (190°)11.5 mph17.3 mphClear
6:35 PM75.6 °F55.0 °F49 %30.00 in10.0 miSouth (180°)13.8 mph19.6 mphClear
6:55 PM75.2 °F55.9 °F51 %30.00 in10.0 miSouth (190°)4.6 mphClear
7:15 PM73.9 °F57.7 °F57 %30.00 in10.0 miSouth (190°)11.5 mphClear
7:35 PM72.7 °F59.0 °F62 %30.00 in10.0 miSouth (180°)8.1 mphClear
7:55 PM71.1 °F59.9 °F68 %30.01 in10.0 miCalmClear
8:15 PM70.7 °F60.3 °F69 %30.02 in10.0 miCalmClear
8:35 PM69.3 °F60.3 °F73 %30.03 in10.0 miCalmClear
8:55 PM69.6 °F59.5 °F70 %30.03 in10.0 miCalmClear
9:15 PM68.4 °F59.2 °F72 %30.03 in10.0 miCalmClear
9:35 PM68.4 °F59.2 °F72 %30.04 in10.0 miCalmClear
9:55 PM66.2 °F59.9 °F80 %30.04 in10.0 miCalmClear
10:15 PM66.2 °F60.3 °F81 %30.05 in10.0 miCalmClear
10:35 PM65.3 °F60.8 °F85 %30.05 in10.0 miCalmClear
10:55 PM63.9 °F60.3 °F88 %30.05 in10.0 miCalmClear
11:15 PM66.7 °F61.9 °F84 %30.05 in10.0 miCalmClear
11:35 PM65.7 °F61.7 °F87 %30.05 in10.0 miCalmClear
11:55 PM67.1 °F62.6 °F85 %30.05 in10.0 miCalmClear
Hourly data recorded from KORG, located miles away from Mauriceville, Texas







STORIES FROM OUR PARTNERS